RH
64 62 68 68 66 63 62 65 65 66 67 69 70 70 71 70 70 71 72 77 73 71 69 69 68 66 56 43 31 9 45 34 14 26 27 23 23 23 25 21 21 24 18 16 16 14 13
65 67 64 68 67 66 66 66 64 67 67 68 70 72 73 72 71 70 70 75 78 76 72 70 68 66 55 65 15 18 20 20 17 26 23 22 20 20 22 21 22 19 20 17 16 16 16
64 73 74 71 68 65 64 65 67 67 67 67 69 70 71 72 72 71 71 74 80 80 74 71 70 56 66 46 17 16 18 19 20 21 22 24 18 20 20 23 18 18 20 17 17 18 19
62 68 69 67 66 66 66 67 65 66 68 69 69 70 71 72 73 74 74 79 80 77 71 76 74 63 59 29 23 25 22 25 22 21 20 18 24 27 22 18 21 21 22 26 20 18 16
59 61 61 61 60 59 59 60 66 66 66 66 67 68 69 76 78 78 80 80 80 67 74 72 62 71 48 38 38 30 31 36 24 23 22 17 16 31 29 32 26 26 27 29 25 20 19
57 57 57 56 56 56 57 64 67 66 66 66 65 66 68 71 76 78 80 78 62 67 52 45 49 71 43 24 30 31 30 36 37 29 27 26 20 26 28 27 34 28 28 25 26 20 21
57 57 65 59 56 55 59 59 66 66 65 65 65 66 67 69 72 78 61 30 32 37 43 41 32 38 28 20 16 20 31 33 36 30 16 21 23 26 25 25 24 21 20 20 18 20 26
57 55 55 55 57 54 53 54 60 62 63 64 66 67 68 70 72 74 46 41 55 67 92 43 40 41 35 32 42 24 18 34 38 29 19 26 23 16 16 23 25 21 22 22 18 18 22
57 57 54 54 53 55 56 59 62 64 65 66 68 68 71 73 73 56 48 44 41 49 76 37 32 37 37 40 48 39 20 29 33 30 28 24 15 12 17 23 27 23 24 23 24 19 18
56 56 54 55 57 60 63 63 62 63 65 67 68 69 71 74 60 48 39 42 43 56 80 31 37 40 38 40 50 32 21 27 30 32 32 27 23 28 28 26 25 26 20 23 23 24 26
55 55 56 58 63 64 62 62 64 65 66 67 69 69 70 76 56 44 41 45 48 82 42 22 35 34 39 48 38 29 27 25 31 35 41 39 36 33 33 28 23 26 26 24 25 28 32
56 59 63 60 61 61 61 63 66 69 70 70 70 70 71 50 47 44 46 55 62 68 35 22 24 38 35 42 44 30 35 24 24 35 35 42 38 32 33 33 25 35 39 42 40 38 49
58 58 61 60 62 62 60 64 68 71 73 73 73 73 63 46 50 54 58 50 53 47 14 29 46 35 37 50 38 37 40 38 33 51 52 46 52 46 42 56 46 40 44 64 74 77 41
62 55 56 63 61 62 65 67 69 72 74 75 75 75 57 48 54 65 58 48 56 17 27 33 38 39 60 76 47 36 36 31 27 26 35 46 64 56 48 40 44 45 39 42 40 42 33
64 51 56 60 58 64 68 70 72 73 75 76 74 48 51 58 66 63 56 63 27 33 41 50 47 50 79 61 87 36 34 24 26 28 36 43 48 45 44 42 36 49 61 43 64 55 56
58 52 60 59 61 65 69 71 72 74 76 72 50 51 54 69 70 61 66 57 40 32 32 44 88 74 90 63 97 37 31 23 29 29 28 33 60 45 49 41 49 43 43 68 61 69 61
57 56 59 59 63 65 70 72 74 76 73 74 58 50 61 65 66 59 82 52 47 36 37 73 72 72 92 86 96 87 42 30 27 33 29 34 41 70 52 48 48 58 60 59 54 68 66
57 56 63 60 62 63 70 73 76 74 72 63 61 76 57 68 82 74 67 59 56 41 34 51 54 73 100 90 94 98 67 46 43 30 37 42 48 64 51 44 37 42 47 49 64 77 62
62 60 62 66 61 64 70 72 78 72 68 54 62 47 51 76 80 68 52 50 50 51 50 65 72 80 88 99 99 96 68 50 38 38 48 48 51 67 73 56 47 49 49 58 86 79 73
61 59 63 65 60 63 67 71 76 75 73 53 84 90 48 70 75 68 66 60 56 48 54 63 93 98 100 100 99 100 95 61 52 48 70 51 48 46 48 56 50 64 52 49 56 72 53
63 61 68 64 58 58 65 70 75 77 71 51 86 80 65 83 62 69 61 53 56 81 68 93 100 86 95 99 98 100 98 82 66 62 59 49 49 43 39 41 41 42 41 39 38 40 55
64 67 66 59 52 58 66 70 74 79 72 54 97 59 52 49 55 67 67 58 50 78 98 88 86 71 65 73 92 97 96 80 81 59 62 59 52 34 39 37 37 40 32 26 28 37 43
63 65 59 60 59 59 66 69 75 80 66 61 60 58 52 52 40 49 67 65 59 53 50 44 65 64 60 74 73 68 67 68 61 62 50 45 44 34 44 34 33 36 32 33 34 34 44
65 67 62 60 63 58 63 69 77 82 66 54 50 46 64 64 43 44 48 44 45 46 53 44 58 64 56 61 54 47 51 48 46 48 48 42 38 39 45 44 37 35 35 33 34 46 62
69 61 63 59 57 58 67 67 77 79 74 55 52 54 50 77 45 42 50 53 44 39 47 58 55 55 65 61 54 34 43 45 51 51 48 44 42 52 51 40 42 52 54 54 53 54 71
66 64 69 58 63 63 68 68 77 76 82 90 72 57 67 71 45 47 54 52 52 58 50 56 49 59 63 63 61 52 55 45 43 47 46 48 47 48 53 50 54 63 48 44 47 62 70
66 66 69 61 66 63 67 69 76 76 78 89 90 78 95 87 47 54 47 52 49 53 58 56 62 66 61 72 65 60 50 48 51 48 56 57 60 62 64 62 56 64 47 46 57 87 88
66 68 70 67 70 62 62 69 72 74 80 92 95 78 84 90 55 56 50 53 46 52 65 57 70 66 76 72 69 71 69 60 56 60 67 57 66 71 62 69 76 91 50 73 95 94 94
65 80 72 68 69 65 64 70 72 76 78 90 98 78 77 98 66 64 57 51 47 47 61 57 63 70 69 76 77 78 77 75 74 64 55 88 83 83 86 96 99 98 97 91 85 94 97
Wind_Speed
7 6 6 5 6 5 5 8 7 8 10 11 11 11 12 13 16 17 17 17 20 22 21 21 19 17 11 10 14 8 9 8 8 7 10 12 16 20 23 17 20 24 21 15 16 20 20
6 4 6 6 6 5 6 7 7 8 10 11 12 12 13 14 16 17 18 19 21 23 24 23 20 14 13 20 8 8 6 7 4 9 11 14 12 17 12 20 20 8 22 20 19 17 18
7 8 8 7 5 5 6 6 6 8 10 11 11 11 12 14 16 18 20 21 22 25 26 26 19 11 16 25 8 7 11 12 10 9 11 12 17 12 10 14 19 17 19 17 16 14 13
8 7 7 6 5 6 6 6 7 10 11 11 12 13 14 17 19 20 21 22 26 26 22 15 8 8 12 6 13 18 18 17 17 18 17 11 7 16 15 13 7 18 19 19 18 20 21
8 7 5 5 3 5 5 6 7 9 10 11 13 14 16 16 18 19 22 25 28 23 8 4 5 6 12 3 8 10 12 12 7 15 14 9 9 14 13 16 15 14 15 17 14 12 13
7 6 4 2 4 4 5 7 7 8 9 11 12 15 17 18 18 20 24 26 19 11 6 6 1 7 8 5 8 13 7 9 8 9 12 12 10 13 16 17 19 14 15 18 15 13 16
7 6 6 6 4 4 6 6 7 8 10 12 14 15 16 18 19 20 17 8 5 5 8 11 17 20 24 25 21 19 7 4 10 13 17 20 16 24 24 21 16 16 16 17 9 4 12
7 5 4 3 3 4 4 5 6 8 10 12 13 15 16 17 19 15 11 6 7 5 15 17 27 28 29 25 19 23 16 11 16 15 18 12 25 22 19 17 20 18 16 15 12 11 15
8 6 3 3 3 3 3 5 7 9 10 12 12 14 14 17 19 6 9 5 8 11 9 13 10 12 9 10 19 27 15 20 16 17 22 17 9 22 15 16 20 20 19 14 13 11 16
8 6 4 3 1 1 4 6 7 9 10 11 12 14 14 18 9 9 4 9 10 6 7 7 4 1 3 6 9 21 21 16 14 19 17 13 8 9 17 22 19 18 16 14 12 9 7
6 5 4 2 1 3 4 5 7 8 10 11 12 13 14 6 8 7 9 12 13 4 8 6 5 4 6 7 17 4 24 22 18 13 10 10 14 14 16 19 17 13 6 11 10 10 10
7 7 6 2 1 2 3 5 7 8 10 11 13 13 14 4 6 8 11 15 5 8 11 5 6 12 17 11 22 10 16 16 13 12 15 8 4 10 7 8 16 10 10 6 4 6 8
8 5 4 2 1 2 2 6 8 9 10 11 13 14 12 6 6 12 11 7 7 9 8 4 15 20 23 20 14 12 18 20 16 17 16 10 10 6 13 13 9 11 12 5 5 5 6
8 5 3 3 1 2 4 6 7 10 11 12 12 12 4 3 7 8 5 6 8 9 13 19 19 24 11 19 13 12 14 20 20 12 13 12 8 12 10 11 9 14 13 5 8 6 5
8 4 3 2 0 3 5 6 8 9 10 10 10 3 2 7 7 4 5 3 8 15 15 17 24 13 11 19 10 9 14 21 17 13 6 11 7 8 12 6 9 10 9 1 3 1 3
7 5 4 3 1 2 5 6 8 10 10 5 5 3 5 8 4 4 3 5 8 15 16 14 11 9 20 23 11 7 15 16 14 13 5 7 7 11 9 12 5 5 9 5 4 6 6
9 7 3 3 1 2 5 5 8 10 4 0 2 3 5 6 5 3 5 8 15 14 14 5 7 12 11 15 12 8 7 10 7 10 2 10 7 8 11 9 13 7 5 2 1 3 3
7 7 6 4 2 1 4 6 8 4 1 2 2 1 4 5 1 2 7 12 15 12 10 9 8 12 13 15 8 10 7 5 0 11 10 1 7 12 8 4 4 3 5 5 4 6 2
9 8 7 7 3 1 3 5 6 1 3 1 2 2 2 4 4 7 10 9 6 12 12 7 7 9 14 6 6 3 4 11 5 5 3 5 8 9 8 6 7 6 6 6 5 3 4
11 8 7 8 4 1 2 4 5 3 5 1 1 1 1 1 2 7 10 10 15 13 11 11 9 11 14 4 4 6 6 15 14 11 13 2 3 4 6 8 9 8 8 6 3 3 1
10 10 9 8 4 1 3 5 5 3 7 2 2 2 2 2 1 8 8 10 15 14 8 8 3 14 14 8 11 10 13 8 17 17 11 7 8 11 11 10 8 8 7 5 2 5 5
11 8 9 6 2 3 4 5 6 6 7 1 2 1 3 3 6 6 4 7 13 12 5 12 16 19 12 14 13 14 14 9 6 1 5 5 3 6 9 7 5 3 1 4 3 4 6
13 10 9 6 7 5 4 4 5 13 8 1 2 2 4 0 4 4 4 7 10 14 6 10 16 15 13 17 19 14 11 10 6 7 7 3 3 1 4 1 1 4 7 6 2 5 8
13 11 10 10 8 6 5 5 5 14 9 1 2 1 2 1 3 6 10 10 10 11 11 15 13 12 13 21 17 5 5 1 3 7 4 3 5 2 3 3 3 7 6 6 4 12 16
12 13 10 10 7 7 5 5 5 7 12 3 3 3 2 3 5 3 8 8 9 8 6 9 11 12 15 12 6 3 3 2 5 13 6 5 2 4 1 4 6 8 8 9 8 8 17
13 11 12 10 8 7 4 5 6 3 15 2 2 3 2 4 2 3 8 5 6 8 6 5 11 9 12 3 4 5 5 4 4 3 6 5 5 2 0 2 3 7 11 10 8 3 15
13 13 13 11 10 9 6 6 6 4 5 5 3 3 1 3 1 3 4 6 4 4 5 4 11 8 11 6 4 5 4 4 3 3 5 3 4 5 2 3 6 11 15 15 5 7 10
11 9 14 12 10 10 7 7 7 6 7 6 3 8 4 3 6 6 6 9 5 4 5 9 5 5 5 5 5 5 4 6 3 6 4 5 3 2 1 1 2 16 7 7 6 10 9
13 8 12 11 9 11 7 8 9 8 6 11 3 7 4 2 5 4 8 13 13 9 6 3 5 4 4 3 4 4 2 3 5 2 7 3 6 5 6 4 6 8 10 10 11 8 9
Wind_Direction
117 111 93 102 79 55 43 44 22 4 2 4 354 349 342 339 333 329 325 320 313 308 308 305 304 312 310 243 251 284 329 301 285 212 226 220 212 213 225 233 229 229 247 216 244 244 255
118 106 126 103 79 52 31 24 357 357 4 1 355 352 346 337 330 325 320 314 308 303 302 298 295 290 260 255 289 266 271 289 263 239 227 227 229 219 256 237 231 222 233 247 235 241 254
128 98 105 94 76 38 18 356 349 4 0 358 343 345 337 331 327 326 321 315 304 299 301 296 285 251 243 243 275 262 272 272 269 264 249 231 232 232 224 251 238 250 251 245 234 230 235
127 104 99 86 64 51 32 11 2 1 0 349 343 342 340 333 329 327 321 312 303 303 304 296 262 198 254 255 266 264 266 259 244 247 248 257 280 251 241 239 233 225 234 248 234 228 239
136 122 116 94 68 36 1 345 13 9 351 343 344 341 339 334 330 326 319 308 298 303 288 167 158 207 270 138 240 255 255 251 235 221 223 240 221 222 205 232 229 214 238 219 246 212 224
146 108 79 74 46 31 6 16 14 1 342 339 344 340 337 333 331 327 318 299 290 270 233 234 5 225 239 231 317 317 294 248 246 174 190 205 215 212 218 214 225 221 220 245 240 216 217
124 125 91 82 70 14 7 15 6 346 338 341 343 340 338 332 329 325 314 310 351 220 359 275 282 271 277 281 283 270 219 276 217 194 194 188 201 211 212 220 236 264 262 254 249 227 258
144 126 92 94 55 23 8 346 348 341 345 346 346 343 336 329 322 319 307 19 47 304 296 259 259 261 266 280 280 262 240 253 203 204 201 169 220 216 222 213 228 235 245 247 262 269 270
147 123 108 91 54 30 345 349 344 342 345 344 345 340 340 329 323 279 332 17 340 336 272 302 256 257 275 224 241 259 229 216 228 206 191 198 217 219 211 212 219 227 239 248 258 286 273
143 142 125 111 133 5 355 353 343 345 346 340 342 340 341 334 279 340 334 333 328 323 284 274 204 139 338 259 251 235 246 217 216 211 196 224 167 192 197 214 210 227 221 252 251 258 256
150 126 160 169 32 37 9 350 352 351 346 341 334 335 337 352 313 308 325 323 315 200 285 65 132 120 352 256 313 123 212 217 222 190 190 184 187 189 195 214 205 237 175 226 232 244 278
150 180 185 156 49 10 11 346 349 346 341 332 328 332 329 272 281 296 321 308 261 233 253 299 311 318 322 303 272 272 194 231 229 187 204 131 183 180 174 167 186 145 154 169 216 244 249
175 171 123 144 59 25 325 341 344 338 339 324 321 328 318 311 322 331 309 284 241 241 342 345 335 320 309 291 275 190 188 196 186 185 180 167 158 128 159 129 157 180 172 168 188 200 246
192 154 191 162 80 1 341 344 339 335 334 322 324 323 6 336 328 313 284 261 264 328 331 336 327 312 341 347 253 190 192 187 212 202 167 171 172 161 176 183 180 190 193 241 229 195 151
181 167 203 172 18 333 356 348 332 336 329 322 313 344 351 359 318 273 273 280 329 335 342 326 323 337 338 316 302 174 192 185 197 206 185 181 118 161 179 169 167 168 215 312 263 182 259
167 165 215 181 242 331 348 340 332 334 324 331 330 310 33 349 334 273 302 316 300 322 316 320 316 338 322 321 322 169 170 186 183 209 241 166 122 183 143 145 96 238 135 173 199 209 222
163 187 207 175 224 321 342 342 339 329 319 111 306 257 45 337 294 273 337 329 317 322 313 305 313 305 293 307 333 284 142 150 184 168 201 163 163 155 159 206 167 156 169 205 25 304 290
169 198 217 196 205 319 343 354 346 336 154 286 314 34 24 314 317 4 330 335 319 316 323 304 267 279 270 293 285 257 109 50 296 181 161 155 147 150 148 104 151 158 160 194 253 176 149
197 210 200 191 177 291 344 350 349 268 250 307 13 7 121 293 12 354 343 336 306 306 333 310 278 289 289 281 276 70 55 40 95 123 123 157 155 139 139 134 167 180 149 89 80 328 230
192 208 224 172 164 192 344 330 343 246 155 296 56 102 117 124 76 323 350 360 358 337 312 328 301 297 316 292 38 41 54 49 30 49 31 54 113 262 168 128 139 148 160 160 160 185 318
196 208 196 177 167 233 302 303 327 213 159 241 1 81 51 355 78 335 334 343 359 357 341 317 282 353 345 348 11 20 26 38 25 20 20 23 88 92 87 100 114 137 153 166 231 253 260
207 212 177 166 171 234 268 286 316 183 161 229 135 232 169 277 294 315 352 349 355 348 304 337 353 339 338 15 4 342 347 14 59 197 107 319 58 111 79 110 119 137 168 278 242 262 292
205 202 188 181 218 214 257 275 306 173 193 160 121 162 284 294 321 317 33 331 318 325 308 336 341 334 352 347 326 306 290 284 296 345 24 102 180 144 100 34 323 143 106 27 33 2 350
206 196 196 208 190 217 251 265 293 187 207 161 136 213 260 316 313 351 320 315 316 326 309 318 342 347 339 321 304 239 222 245 335 17 358 95 86 22 102 206 122 75 28 70 358 53 19
199 207 205 206 204 215 228 254 287 206 190 226 144 231 253 298 311 328 348 338 312 316 327 320 347 331 320 313 331 353 94 89 36 34 57 8 11 88 90 57 112 117 40 11 1 60 28
204 218 207 198 204 226 218 242 271 214 197 118 166 294 268 301 92 331 324 338 344 345 339 1 336 333 336 310 332 3 38 339 49 96 38 23 7 359 184 82 111 50 350 332 306 157 16
213 217 204 201 206 213 219 243 249 246 206 152 166 161 107 274 287 251 333 344 336 333 303 320 347 341 349 347 15 11 46 325 16 31 30 47 34 31 45 43 99 0 343 322 244 31 15
219 230 203 195 206 210 217 243 249 251 264 161 151 178 187 245 280 237 262 279 281 280 312 343 296 29 351 16 350 21 346 25 305 48 357 15 323 79 19 310 111 351 347 16 0 39 34
201 192 217 199 210 205 219 247 246 248 245 201 158 186 174 212 330 310 280 272 265 283 294 293 335 4 19 327 28 285 311 357 334 64 24 67 5 1 22 52 50 23 56 44 51 64 34